sat.trackr.live / text

‹ back to catalog

ONEWEB-0577

NORAD 56066 · 2023-043W

PAYLOAD ACTIVE UNKNOWN

§ Identity

Operator
Country
UK
Launch date
2023-03-26
Launch site
SRILR
Launch vehicle
Mass (kg)
RCS (m²)

Purposes: comms

External: N2YO · Heavens-Above · Gunter

§ Orbital elements

Epoch: 2026-05-25T04:37:41.377728Z

Period
109.37 min
Inclination
87.9108°
Eccentricity
0.0002772
Mean motion
13.16596256 rev/d
Perigee alt
1,195.6 km
Apogee alt
1,199.8 km
Semi-major
7,575.9 km
B*
-9.4227e-6
RAAN
233.3379°
Arg perigee
92.4255°
Mean anomaly
267.7193°
Rev number
15,596

§ Raw data

ONEWEB-05771 56066U 23043W   26145.19284002  .00000009  00000+0 -94227-5 0  99972 56066  87.9108 233.3379 0002772  92.4255 267.7193 13.16596256155968

JSON: /api/v1/satellites/56066 · /tle

For live sub-satellite position, see the globe view (requires WebGL).

§ Visibility from observer

Set your observer location to see the next 7 days of passes ≥ 10°. The values pass through the URL so the page stays shareable.

No JS? Fill the form by hand. The geolocation button needs JavaScript.